Time,TemperatureF,DewpointF,PressureIn,WindDirection,WindDirectionDegrees,WindSpeedMPH,WindSpeedGustMPH,Humidity,HourlyPrecipIn,Conditions,Clouds,dailyrainin,SolarRadiationWatts/m^2,SoftwareType,DateUTC
2013-02-12 00:02:00,44.3,38.8,30.22,SW,236,0.0,0.0,81,0.00,,,0.00,0,WeatherCatV1.14B206,2013-02-12 08:02:00,
2013-02-12 00:07:00,44.3,38.8,30.22,SW,236,0.0,0.0,81,0.00,,,0.00,0,WeatherCatV1.14B206,2013-02-12 08:07:00,
2013-02-12 00:12:00,44.3,38.8,30.22,SW,236,0.0,0.0,81,0.00,,,0.00,0,WeatherCatV1.14B206,2013-02-12 08:12:00,
2013-02-12 00:17:00,44.3,39.2,30.23,SW,236,0.0,0.0,82,0.00,,,0.00,0,WeatherCatV1.14B206,2013-02-12 08:17:00,
2013-02-12 00:22:00,44.2,39.1,30.23,SW,236,0.0,0.0,82,0.00,,,0.00,0,WeatherCatV1.14B206,2013-02-12 08:22:00,
2013-02-12 00:27:00,44.2,39.1,30.23,SW,236,0.0,0.0,82,0.00,,,0.00,0,WeatherCatV1.14B206,2013-02-12 08:27:00,
2013-02-12 00:32:00,44.2,38.7,30.23,SW,236,0.0,0.0,81,0.00,,,0.00,0,WeatherCatV1.14B206,2013-02-12 08:32:00,
2013-02-12 00:37:00,44.2,39.1,30.23,SW,236,0.0,0.0,82,0.00,,,0.00,0,WeatherCatV1.14B206,2013-02-12 08:37:00,
2013-02-12 00:42:00,44.1,39.0,30.23,SW,236,0.0,0.0,82,0.00,,,0.00,0,WeatherCatV1.14B206,2013-02-12 08:42:00,
2013-02-12 00:47:00,44.1,39.0,30.23,SW,236,0.0,0.0,82,0.00,,,0.00,0,WeatherCatV1.14B206,2013-02-12 08:47:00,
2013-02-12 00:52:00,44.0,38.9,30.23,SW,236,0.0,0.0,82,0.00,,,0.00,0,WeatherCatV1.14B206,2013-02-12 08:52:00,
2013-02-12 00:57:00,44.0,38.9,30.23,SW,236,0.0,0.0,82,0.00,,,0.00,0,WeatherCatV1.14B206,2013-02-12 08:57:00,
2013-02-12 01:02:00,43.8,38.7,30.22,SW,236,0.0,0.0,82,0.00,,,0.00,0,WeatherCatV1.14B206,2013-02-12 09:02:00,
2013-02-12 01:07:00,43.8,39.0,30.22,SW,236,0.0,0.0,83,0.00,,,0.00,0,WeatherCatV1.14B206,2013-02-12 09:07:00,
2013-02-12 01:12:00,43.7,38.9,30.23,SW,236,0.0,0.0,83,0.00,,,0.00,0,WeatherCatV1.14B206,2013-02-12 09:12:00,
2013-02-12 01:17:00,43.6,38.8,30.23,SW,236,0.0,0.0,83,0.00,,,0.00,0,WeatherCatV1.14B206,2013-02-12 09:17:00,
2013-02-12 01:22:00,43.4,38.3,30.23,SW,236,0.0,0.0,82,0.00,,,0.00,0,WeatherCatV1.14B206,2013-02-12 09:22:00,
2013-02-12 01:27:00,43.2,38.4,30.23,SW,236,0.0,0.0,83,0.00,,,0.00,0,WeatherCatV1.14B206,2013-02-12 09:27:00,
2013-02-12 01:32:00,43.1,38.6,30.23,SW,236,0.0,0.0,84,0.00,,,0.00,0,WeatherCatV1.14B206,2013-02-12 09:32:00,
2013-02-12 01:37:00,43.0,38.5,30.23,SW,236,0.0,0.0,84,0.00,,,0.00,0,WeatherCatV1.14B206,2013-02-12 09:37:00,
2013-02-12 01:42:00,43.0,38.8,30.23,SW,236,0.0,0.0,85,0.00,,,0.00,0,WeatherCatV1.14B206,2013-02-12 09:42:00,
2013-02-12 01:47:00,43.0,38.8,30.23,SW,236,0.0,0.0,85,0.00,,,0.00,0,WeatherCatV1.14B206,2013-02-12 09:47:00,
2013-02-12 01:52:00,43.0,38.8,30.23,SW,236,0.0,0.0,85,0.00,,,0.00,0,WeatherCatV1.14B206,2013-02-12 09:52:00,
2013-02-12 01:57:00,43.1,39.2,30.24,SW,236,0.0,0.0,86,0.00,,,0.00,0,WeatherCatV1.14B206,2013-02-12 09:57:00,
2013-02-12 02:02:00,43.1,39.2,30.24,SW,236,0.0,0.0,86,0.00,,,0.00,0,WeatherCatV1.14B206,2013-02-12 10:02:00,
2013-02-12 02:07:00,43.1,39.2,30.24,SW,236,0.0,0.0,86,0.00,,,0.00,0,WeatherCatV1.14B206,2013-02-12 10:07:00,
2013-02-12 02:12:00,43.1,39.2,30.24,SW,236,0.0,0.0,86,0.00,,,0.00,0,WeatherCatV1.14B206,2013-02-12 10:12:00,
2013-02-12 02:17:00,43.1,38.9,30.24,SW,236,0.0,0.0,85,0.00,,,0.00,0,WeatherCatV1.14B206,2013-02-12 10:17:00,
2013-02-12 02:22:00,43.1,38.9,30.24,SW,236,0.0,0.0,85,0.00,,,0.00,0,WeatherCatV1.14B206,2013-02-12 10:22:00,
2013-02-12 02:27:00,43.0,38.8,30.24,SW,236,0.0,0.0,85,0.00,,,0.00,0,WeatherCatV1.14B206,2013-02-12 10:27:00,
2013-02-12 02:32:00,43.0,38.8,30.24,SW,236,0.0,0.0,85,0.00,,,0.00,0,WeatherCatV1.14B206,2013-02-12 10:32:00,
2013-02-12 02:37:00,43.0,39.1,30.24,SW,236,0.0,0.0,86,0.00,,,0.00,0,WeatherCatV1.14B206,2013-02-12 10:37:00,
2013-02-12 02:42:00,43.0,39.1,30.25,SW,236,0.0,0.0,86,0.00,,,0.00,0,WeatherCatV1.14B206,2013-02-12 10:42:00,
2013-02-12 02:47:00,43.0,39.1,30.24,SW,236,0.0,0.0,86,0.00,,,0.00,0,WeatherCatV1.14B206,2013-02-12 10:47:00,
2013-02-12 02:52:00,43.0,39.1,30.24,SW,236,0.0,0.0,86,0.00,,,0.00,0,WeatherCatV1.14B206,2013-02-12 10:52:00,
2013-02-12 02:57:00,42.9,38.7,30.25,SW,236,0.0,0.0,85,0.00,,,0.00,0,WeatherCatV1.14B206,2013-02-12 10:57:00,
2013-02-12 03:02:00,42.7,38.5,30.25,SW,236,0.0,0.0,85,0.00,,,0.00,0,WeatherCatV1.14B206,2013-02-12 11:02:00,
2013-02-12 03:07:00,42.6,38.4,30.25,SW,236,0.0,0.0,85,0.00,,,0.00,0,WeatherCatV1.14B206,2013-02-12 11:07:00,
2013-02-12 03:12:00,42.5,38.6,30.24,SW,236,0.0,0.0,86,0.00,,,0.00,0,WeatherCatV1.14B206,2013-02-12 11:12:00,
2013-02-12 03:17:00,42.4,38.5,30.25,SW,236,0.0,0.0,86,0.00,,,0.00,0,WeatherCatV1.14B206,2013-02-12 11:17:00,
2013-02-12 03:22:00,42.3,38.4,30.25,SW,236,0.0,0.0,86,0.00,,,0.00,0,WeatherCatV1.14B206,2013-02-12 11:22:00,
2013-02-12 03:27:00,42.2,38.3,30.25,SW,236,0.0,0.0,86,0.00,,,0.00,0,WeatherCatV1.14B206,2013-02-12 11:27:00,
2013-02-12 03:32:00,42.1,38.2,30.25,SW,236,0.0,0.0,86,0.00,,,0.00,0,WeatherCatV1.14B206,2013-02-12 11:32:00,
2013-02-12 03:37:00,42.0,38.1,30.25,SW,236,0.0,0.0,86,0.00,,,0.00,0,WeatherCatV1.14B206,2013-02-12 11:37:00,
2013-02-12 03:42:00,42.0,38.1,30.25,SW,236,0.0,0.0,86,0.00,,,0.00,0,WeatherCatV1.14B206,2013-02-12 11:42:00,
2013-02-12 03:47:00,42.0,38.4,30.25,SW,236,0.0,0.0,87,0.00,,,0.00,0,WeatherCatV1.14B206,2013-02-12 11:47:00,
2013-02-12 03:52:00,41.9,38.0,30.25,SW,236,0.0,0.0,86,0.00,,,0.00,0,WeatherCatV1.14B206,2013-02-12 11:52:00,
2013-02-12 03:58:00,41.8,38.2,30.25,SW,236,0.0,0.0,87,0.00,,,0.00,0,WeatherCatV1.14B206,2013-02-12 11:58:00,
2013-02-12 04:03:00,41.8,38.2,30.25,SW,236,0.0,0.0,87,0.00,,,0.00,0,WeatherCatV1.14B206,2013-02-12 12:03:00,
2013-02-12 04:08:00,41.7,37.8,30.25,SW,236,0.0,0.0,86,0.00,,,0.00,0,WeatherCatV1.14B206,2013-02-12 12:08:00,
2013-02-12 04:13:00,41.5,37.3,30.25,SW,236,0.0,0.0,85,0.00,,,0.00,0,WeatherCatV1.14B206,2013-02-12 12:13:00,
2013-02-12 04:18:00,41.3,37.1,30.26,SW,236,0.0,0.0,85,0.00,,,0.00,0,WeatherCatV1.14B206,2013-02-12 12:18:00,
2013-02-12 04:23:00,41.0,36.8,30.26,SW,236,0.0,0.0,85,0.00,,,0.00,0,WeatherCatV1.14B206,2013-02-12 12:23:00,
2013-02-12 04:28:00,40.9,37.0,30.26,SW,236,0.0,0.0,86,0.00,,,0.00,0,WeatherCatV1.14B206,2013-02-12 12:28:00,
2013-02-12 04:33:00,40.8,37.2,30.26,SW,236,0.0,0.0,87,0.00,,,0.00,0,WeatherCatV1.14B206,2013-02-12 12:33:00,
2013-02-12 04:38:00,40.8,37.2,30.26,SW,236,0.0,0.0,87,0.00,,,0.00,0,WeatherCatV1.14B206,2013-02-12 12:38:00,
2013-02-12 04:43:00,40.7,37.1,30.26,SW,236,0.0,0.0,87,0.00,,,0.00,0,WeatherCatV1.14B206,2013-02-12 12:43:00,
2013-02-12 04:48:00,40.7,37.1,30.26,SW,236,0.0,0.0,87,0.00,,,0.00,0,WeatherCatV1.14B206,2013-02-12 12:48:00,
2013-02-12 04:53:00,40.8,37.5,30.26,SW,236,0.0,0.0,88,0.00,,,0.00,0,WeatherCatV1.14B206,2013-02-12 12:53:00,
2013-02-12 04:58:00,40.8,37.5,30.26,SW,236,0.0,0.0,88,0.00,,,0.00,0,WeatherCatV1.14B206,2013-02-12 12:58:00,
2013-02-12 05:03:00,40.9,37.6,30.26,SW,236,0.0,0.0,88,0.00,,,0.00,0,WeatherCatV1.14B206,2013-02-12 13:03:00,
2013-02-12 05:08:00,40.7,37.1,30.26,SW,236,0.0,0.0,87,0.00,,,0.00,0,WeatherCatV1.14B206,2013-02-12 13:08:00,
2013-02-12 05:13:00,40.6,37.0,30.26,SW,236,0.0,0.0,87,0.00,,,0.00,0,WeatherCatV1.14B206,2013-02-12 13:13:00,
2013-02-12 05:18:00,40.5,36.9,30.26,SW,236,0.0,0.0,87,0.00,,,0.00,0,WeatherCatV1.14B206,2013-02-12 13:18:00,
2013-02-12 05:23:00,40.4,36.8,30.26,SW,236,0.0,0.0,87,0.00,,,0.00,0,WeatherCatV1.14B206,2013-02-12 13:23:00,
2013-02-12 05:28:00,40.2,38.1,30.26,SW,236,0.0,0.0,92,0.00,,,0.00,0,WeatherCatV1.14B206,2013-02-12 13:28:00,
2013-02-12 05:33:00,40.2,36.6,30.26,SW,236,0.0,0.0,87,0.00,,,0.00,0,WeatherCatV1.14B206,2013-02-12 13:33:00,
2013-02-12 05:38:00,40.1,36.5,30.27,SW,236,0.0,0.0,87,0.00,,,0.00,0,WeatherCatV1.14B206,2013-02-12 13:38:00,
2013-02-12 05:43:00,40.0,36.7,30.27,SW,236,0.0,0.0,88,0.00,,,0.00,0,WeatherCatV1.14B206,2013-02-12 13:43:00,
2013-02-12 05:48:00,40.0,36.7,30.27,SW,236,0.0,0.0,88,0.00,,,0.00,0,WeatherCatV1.14B206,2013-02-12 13:48:00,
2013-02-12 05:53:00,40.1,37.1,30.27,SW,236,0.0,0.0,89,0.00,,,0.00,0,WeatherCatV1.14B206,2013-02-12 13:53:00,
2013-02-12 05:58:00,40.2,37.2,30.28,SW,236,0.0,0.0,89,0.00,,,0.00,0,WeatherCatV1.14B206,2013-02-12 13:58:00,
2013-02-12 06:03:00,40.2,37.2,30.28,SW,236,0.0,0.0,89,0.00,,,0.00,0,WeatherCatV1.14B206,2013-02-12 14:03:00,
2013-02-12 06:08:00,40.3,37.3,30.28,SW,236,0.0,0.0,89,0.00,,,0.00,0,WeatherCatV1.14B206,2013-02-12 14:08:00,
2013-02-12 06:13:00,40.4,37.4,30.28,SW,236,0.0,0.0,89,0.00,,,0.00,0,WeatherCatV1.14B206,2013-02-12 14:13:00,
2013-02-12 06:18:00,40.4,37.4,30.28,SW,236,0.0,0.0,89,0.00,,,0.00,0,WeatherCatV1.14B206,2013-02-12 14:18:00,
2013-02-12 06:23:00,40.5,37.5,30.29,SW,236,0.0,0.0,89,0.00,,,0.00,0,WeatherCatV1.14B206,2013-02-12 14:23:00,
2013-02-12 06:28:00,40.5,37.5,30.29,SW,236,0.0,0.0,89,0.00,,,0.00,0,WeatherCatV1.14B206,2013-02-12 14:28:00,
2013-02-12 06:33:00,40.6,37.6,30.29,SW,236,0.0,0.0,89,0.00,,,0.00,0,WeatherCatV1.14B206,2013-02-12 14:33:00,
2013-02-12 06:38:00,40.7,37.7,30.29,SW,236,0.0,0.0,89,0.00,,,0.00,0,WeatherCatV1.14B206,2013-02-12 14:38:00,
2013-02-12 06:43:00,40.7,38.0,30.29,SW,236,0.0,0.0,90,0.00,,,0.00,0,WeatherCatV1.14B206,2013-02-12 14:43:00,
2013-02-12 06:48:00,40.7,37.7,30.30,SW,236,0.0,0.0,89,0.00,,,0.00,0,WeatherCatV1.14B206,2013-02-12 14:48:00,
2013-02-12 06:53:00,40.6,37.6,30.30,SW,236,0.0,0.0,89,0.00,,,0.00,0,WeatherCatV1.14B206,2013-02-12 14:53:00,
2013-02-12 06:58:00,40.6,37.3,30.30,SW,236,0.0,0.0,88,0.00,,,0.00,0,WeatherCatV1.14B206,2013-02-12 14:58:00,
2013-02-12 07:03:00,40.4,37.1,30.30,SW,236,0.0,0.0,88,0.00,,,0.00,0,WeatherCatV1.14B206,2013-02-12 15:03:00,
2013-02-12 07:08:00,40.2,36.6,30.30,SW,236,0.0,0.0,87,0.00,,,0.00,0,WeatherCatV1.14B206,2013-02-12 15:08:00,
2013-02-12 07:13:00,39.9,36.1,30.31,SW,236,0.0,0.0,86,0.00,,,0.00,7,WeatherCatV1.14B206,2013-02-12 15:13:00,
2013-02-12 07:18:00,39.7,36.4,30.31,SW,236,0.0,0.0,88,0.00,,,0.00,11,WeatherCatV1.14B206,2013-02-12 15:18:00,
2013-02-12 07:23:00,39.6,36.1,30.31,SW,236,0.0,0.0,87,0.00,,,0.00,14,WeatherCatV1.14B206,2013-02-12 15:23:00,
2013-02-12 07:28:00,39.4,35.9,30.31,SW,236,0.0,0.0,87,0.00,,,0.00,16,WeatherCatV1.14B206,2013-02-12 15:28:00,
2013-02-12 07:33:00,39.2,36.0,30.31,SW,236,0.0,0.0,88,0.00,,,0.00,21,WeatherCatV1.14B206,2013-02-12 15:33:00,
2013-02-12 07:38:00,39.2,36.2,30.31,SW,236,0.0,0.0,89,0.00,,,0.00,21,WeatherCatV1.14B206,2013-02-12 15:38:00,
2013-02-12 07:43:00,39.3,36.3,30.31,SW,236,0.0,0.0,89,0.00,,,0.00,25,WeatherCatV1.14B206,2013-02-12 15:43:00,
2013-02-12 07:48:00,39.5,37.1,30.32,WSW,237,0.0,0.0,91,0.00,,,0.00,30,WeatherCatV1.14B206,2013-02-12 15:48:00,
2013-02-12 07:53:00,39.8,37.4,30.32,SW,236,0.0,0.0,91,0.00,,,0.00,33,WeatherCatV1.14B206,2013-02-12 15:53:00,
2013-02-12 07:58:00,39.9,37.2,30.32,SW,236,0.0,0.0,90,0.00,,,0.00,28,WeatherCatV1.14B206,2013-02-12 15:58:00,
2013-02-12 08:03:00,40.1,37.7,30.32,SW,236,0.0,0.0,91,0.00,,,0.00,30,WeatherCatV1.14B206,2013-02-12 16:03:00,
2013-02-12 08:08:00,40.4,38.0,30.32,SW,236,0.0,0.0,91,0.00,,,0.00,33,WeatherCatV1.14B206,2013-02-12 16:08:00,
2013-02-12 08:13:00,40.6,38.2,30.33,SW,236,0.0,0.0,91,0.00,,,0.00,35,WeatherCatV1.14B206,2013-02-12 16:13:00,
2013-02-12 08:18:00,40.9,38.5,30.33,SW,236,0.0,0.0,91,0.00,,,0.00,56,WeatherCatV1.14B206,2013-02-12 16:18:00,
2013-02-12 08:23:00,41.1,38.7,30.33,SW,236,0.0,0.0,91,0.00,,,0.00,83,WeatherCatV1.14B206,2013-02-12 16:23:00,
2013-02-12 08:28:00,41.3,38.6,30.33,SW,236,0.0,0.0,90,0.00,,,0.00,171,WeatherCatV1.14B206,2013-02-12 16:28:00,
2013-02-12 08:33:00,41.5,38.8,30.32,SW,236,0.0,0.0,90,0.00,,,0.00,67,WeatherCatV1.14B206,2013-02-12 16:33:00,
2013-02-12 08:38:00,41.7,38.7,30.32,SW,236,0.0,0.0,89,0.00,,,0.00,248,WeatherCatV1.14B206,2013-02-12 16:38:00,
2013-02-12 08:43:00,41.9,38.9,30.33,SW,236,0.0,0.0,89,0.00,,,0.00,47,WeatherCatV1.14B206,2013-02-12 16:43:00,
2013-02-12 08:48:00,42.1,39.1,30.33,SW,236,0.0,0.0,89,0.00,,,0.00,141,WeatherCatV1.14B206,2013-02-12 16:48:00,
2013-02-12 08:53:00,42.4,39.4,30.33,SW,236,0.0,0.0,89,0.00,,,0.00,84,WeatherCatV1.14B206,2013-02-12 16:53:00,
2013-02-12 08:58:00,42.7,39.7,30.33,WSW,237,0.0,0.0,89,0.00,,,0.00,46,WeatherCatV1.14B206,2013-02-12 16:58:00,
2013-02-12 09:03:00,43.0,39.4,30.33,SW,236,0.0,0.0,87,0.00,,,0.00,44,WeatherCatV1.14B206,2013-02-12 17:03:00,
2013-02-12 09:08:00,43.4,39.8,30.33,SW,236,0.0,0.0,87,0.00,,,0.00,42,WeatherCatV1.14B206,2013-02-12 17:08:00,
2013-02-12 09:13:00,43.8,39.6,30.34,SW,236,0.0,0.0,85,0.00,,,0.00,47,WeatherCatV1.14B206,2013-02-12 17:13:00,
2013-02-12 09:18:00,44.2,40.0,30.34,SW,236,1.0,1.0,85,0.00,,,0.00,155,WeatherCatV1.14B206,2013-02-12 17:18:00,
2013-02-12 09:23:00,44.6,39.8,30.34,SW,236,0.0,1.0,83,0.00,,,0.00,216,WeatherCatV1.14B206,2013-02-12 17:23:00,
2013-02-12 09:28:00,45.1,40.2,30.34,SW,236,0.0,0.0,83,0.00,,,0.00,330,WeatherCatV1.14B206,2013-02-12 17:28:00,
2013-02-12 09:33:00,45.6,40.4,30.34,SW,228,0.0,1.0,82,0.00,,,0.00,387,WeatherCatV1.14B206,2013-02-12 17:33:00,
2013-02-12 09:38:00,46.2,40.4,30.34,SW,228,1.0,1.0,80,0.00,,,0.00,417,WeatherCatV1.14B206,2013-02-12 17:38:00,
2013-02-12 09:43:00,46.8,40.3,30.34,ENE,78,2.0,2.0,78,0.00,,,0.00,350,WeatherCatV1.14B206,2013-02-12 17:43:00,
2013-02-12 09:48:00,47.5,40.3,30.34,East,79,1.0,1.0,76,0.00,,,0.00,401,WeatherCatV1.14B206,2013-02-12 17:48:00,
2013-02-12 09:53:00,48.2,40.7,30.34,ENE,73,0.0,1.0,75,0.00,,,0.00,225,WeatherCatV1.14B206,2013-02-12 17:53:00,
2013-02-12 09:58:00,49.0,40.7,30.34,NE,34,0.0,2.0,73,0.00,,,0.00,40,WeatherCatV1.14B206,2013-02-12 17:58:00,
2013-02-12 10:03:00,49.8,41.1,30.34,North,355,0.0,2.0,72,0.00,,,0.00,113,WeatherCatV1.14B206,2013-02-12 18:03:00,
2013-02-12 10:08:00,50.6,41.9,30.34,NW,319,0.0,0.0,72,0.00,,,0.00,144,WeatherCatV1.14B206,2013-02-12 18:08:00,
2013-02-12 10:13:00,51.5,42.8,30.34,NNW,346,0.0,4.0,72,0.00,,,0.00,69,WeatherCatV1.14B206,2013-02-12 18:13:00,
2013-02-12 10:18:00,52.0,42.1,30.34,NNE,24,0.0,0.0,69,0.00,,,0.00,63,WeatherCatV1.14B206,2013-02-12 18:18:00,
2013-02-12 10:23:00,53.0,42.3,30.34,NNE,26,0.0,1.0,67,0.00,,,0.00,72,WeatherCatV1.14B206,2013-02-12 18:23:00,
2013-02-12 10:28:00,53.5,42.0,30.34,NNW,344,0.0,0.0,65,0.00,,,0.00,76,WeatherCatV1.14B206,2013-02-12 18:28:00,
2013-02-12 10:33:00,54.0,42.5,30.34,NE,34,1.0,3.0,65,0.00,,,0.00,127,WeatherCatV1.14B206,2013-02-12 18:33:00,
2013-02-12 10:38:00,54.5,42.6,30.34,NNW,340,1.0,2.0,64,0.00,,,0.00,404,WeatherCatV1.14B206,2013-02-12 18:38:00,
2013-02-12 10:43:00,55.0,42.2,30.34,NNE,18,0.0,2.0,62,0.00,,,0.00,468,WeatherCatV1.14B206,2013-02-12 18:43:00,
2013-02-12 10:48:00,55.4,42.6,30.34,WNW,301,0.0,5.0,62,0.00,,,0.00,260,WeatherCatV1.14B206,2013-02-12 18:48:00,
2013-02-12 10:53:00,55.9,42.6,30.34,NNW,337,2.0,3.0,61,0.00,,,0.00,323,WeatherCatV1.14B206,2013-02-12 18:53:00,
2013-02-12 10:58:00,56.3,41.7,30.34,NNW,337,0.0,2.0,58,0.00,,,0.00,234,WeatherCatV1.14B206,2013-02-12 18:58:00,
2013-02-12 11:03:00,56.8,41.7,30.34,East,90,0.0,2.0,57,0.00,,,0.00,533,WeatherCatV1.14B206,2013-02-12 19:03:00,
2013-02-12 11:08:00,57.1,41.6,30.34,NE,46,0.0,2.0,56,0.00,,,0.00,652,WeatherCatV1.14B206,2013-02-12 19:08:00,
2013-02-12 11:13:00,57.3,41.7,30.34,NE,46,0.0,0.0,56,0.00,,,0.00,657,WeatherCatV1.14B206,2013-02-12 19:13:00,
2013-02-12 11:18:00,57.5,40.5,30.34,WSW,254,0.0,3.0,53,0.00,,,0.00,664,WeatherCatV1.14B206,2013-02-12 19:18:00,
2013-02-12 11:23:00,57.7,40.7,30.34,SSW,193,0.0,1.0,53,0.00,,,0.00,670,WeatherCatV1.14B206,2013-02-12 19:23:00,
2013-02-12 11:28:00,57.8,41.3,30.34,ESE,111,1.0,1.0,54,0.00,,,0.00,679,WeatherCatV1.14B206,2013-02-12 19:28:00,
2013-02-12 11:33:00,57.9,41.4,30.34,East,90,0.0,1.0,54,0.00,,,0.00,684,WeatherCatV1.14B206,2013-02-12 19:33:00,
2013-02-12 11:38:00,58.1,39.6,30.34,East,86,0.0,1.0,50,0.00,,,0.00,689,WeatherCatV1.14B206,2013-02-12 19:38:00,
2013-02-12 11:43:00,58.3,40.8,30.34,East,86,0.0,1.0,52,0.00,,,0.00,691,WeatherCatV1.14B206,2013-02-12 19:43:00,
2013-02-12 11:48:00,58.4,40.3,30.34,NNW,346,3.0,3.0,51,0.00,,,0.00,691,WeatherCatV1.14B206,2013-02-12 19:48:00,
2013-02-12 11:53:00,58.5,39.9,30.34,East,84,0.0,1.0,50,0.00,,,0.00,696,WeatherCatV1.14B206,2013-02-12 19:53:00,
2013-02-12 11:58:00,58.4,40.8,30.34,East,90,0.0,1.0,52,0.00,,,0.00,698,WeatherCatV1.14B206,2013-02-12 19:58:00,
2013-02-12 12:03:00,58.4,40.3,30.34,East,88,0.0,1.0,51,0.00,,,0.00,698,WeatherCatV1.14B206,2013-02-12 20:03:00,
2013-02-12 12:08:00,58.6,41.0,30.33,ENE,69,0.0,4.0,52,0.00,,,0.00,703,WeatherCatV1.14B206,2013-02-12 20:08:00,
2013-02-12 12:13:00,58.9,40.8,30.33,SSE,162,0.0,2.0,51,0.00,,,0.00,708,WeatherCatV1.14B206,2013-02-12 20:13:00,
2013-02-12 12:18:00,59.3,40.7,30.33,SSE,162,0.0,1.0,50,0.00,,,0.00,708,WeatherCatV1.14B206,2013-02-12 20:18:00,
2013-02-12 12:23:00,59.6,40.4,30.33,ESE,113,1.0,4.0,49,0.00,,,0.00,708,WeatherCatV1.14B206,2013-02-12 20:23:00,
2013-02-12 12:28:00,59.9,40.7,30.33,NE,34,0.0,1.0,49,0.00,,,0.00,710,WeatherCatV1.14B206,2013-02-12 20:28:00,
2013-02-12 12:33:00,59.9,39.6,30.33,East,90,1.0,5.0,47,0.00,,,0.00,712,WeatherCatV1.14B206,2013-02-12 20:33:00,
2013-02-12 12:38:00,59.9,39.6,30.33,ESE,112,1.0,5.0,47,0.00,,,0.00,659,WeatherCatV1.14B206,2013-02-12 20:38:00,
2013-02-12 12:43:00,59.8,39.5,30.33,East,79,0.0,1.0,47,0.00,,,0.00,675,WeatherCatV1.14B206,2013-02-12 20:43:00,
2013-02-12 12:48:00,59.8,39.0,30.33,North,0,1.0,6.0,46,0.00,,,0.00,712,WeatherCatV1.14B206,2013-02-12 20:48:00,
2013-02-12 12:53:00,59.9,39.1,30.32,ESE,109,0.0,1.0,46,0.00,,,0.00,712,WeatherCatV1.14B206,2013-02-12 20:53:00,
2013-02-12 12:58:00,59.9,39.6,30.32,East,88,0.0,2.0,47,0.00,,,0.00,703,WeatherCatV1.14B206,2013-02-12 20:58:00,
2013-02-12 13:03:00,59.9,40.2,30.32,NW,309,1.0,4.0,48,0.00,,,0.00,664,WeatherCatV1.14B206,2013-02-12 21:03:00,
2013-02-12 13:08:00,59.9,40.2,30.32,North,355,1.0,4.0,48,0.00,,,0.00,563,WeatherCatV1.14B206,2013-02-12 21:08:00,
2013-02-12 13:13:00,59.8,40.1,30.32,North,0,0.0,1.0,48,0.00,,,0.00,636,WeatherCatV1.14B206,2013-02-12 21:13:00,
2013-02-12 13:18:00,59.6,40.4,30.32,NNW,327,0.0,3.0,49,0.00,,,0.00,598,WeatherCatV1.14B206,2013-02-12 21:18:00,
2013-02-12 13:23:00,59.4,39.7,30.31,ENE,78,1.0,2.0,48,0.00,,,0.00,652,WeatherCatV1.14B206,2013-02-12 21:23:00,
2013-02-12 13:28:00,59.2,40.0,30.31,East,86,0.0,0.0,49,0.00,,,0.00,624,WeatherCatV1.14B206,2013-02-12 21:28:00,
2013-02-12 13:33:00,59.1,39.4,30.31,ESE,121,2.0,4.0,48,0.00,,,0.00,677,WeatherCatV1.14B206,2013-02-12 21:33:00,
2013-02-12 13:38:00,58.8,38.6,30.31,ESE,121,0.0,1.0,47,0.00,,,0.00,659,WeatherCatV1.14B206,2013-02-12 21:38:00,
2013-02-12 13:43:00,58.7,39.6,30.30,East,88,0.0,2.0,49,0.00,,,0.00,617,WeatherCatV1.14B206,2013-02-12 21:43:00,
2013-02-12 13:48:00,58.4,38.8,30.31,East,81,0.0,2.0,48,0.00,,,0.00,599,WeatherCatV1.14B206,2013-02-12 21:48:00,
2013-02-12 13:53:00,58.2,38.1,30.31,NE,53,1.0,1.0,47,0.00,,,0.00,559,WeatherCatV1.14B206,2013-02-12 21:53:00,
2013-02-12 13:58:00,57.9,38.3,30.30,ESE,120,0.0,5.0,48,0.00,,,0.00,617,WeatherCatV1.14B206,2013-02-12 21:58:00,
2013-02-12 14:03:00,57.7,38.1,30.30,East,94,0.0,0.0,48,0.00,,,0.00,612,WeatherCatV1.14B206,2013-02-12 22:03:00,
2013-02-12 14:08:00,57.5,38.0,30.30,ESE,102,0.0,1.0,48,0.00,,,0.00,594,WeatherCatV1.14B206,2013-02-12 22:08:00,
2013-02-12 14:11:00,57.5,39.0,30.30,NNE,31,1.0,2.0,50,0.00,,,0.00,585,WeatherCatV1.14B206,2013-02-12 22:11:00,
2013-02-12 14:16:00,57.4,39.4,30.30,NNE,32,0.0,0.0,51,0.00,,,0.00,571,WeatherCatV1.14B206,2013-02-12 22:16:00,
2013-02-12 14:21:00,57.4,38.4,30.30,NE,41,0.0,4.0,49,0.00,,,0.00,557,WeatherCatV1.14B206,2013-02-12 22:21:00,
2013-02-12 14:26:00,57.3,37.2,30.30,NE,38,0.0,2.0,47,0.00,,,0.00,529,WeatherCatV1.14B206,2013-02-12 22:26:00,
2013-02-12 14:31:00,57.3,38.8,30.30,ENE,69,0.0,1.0,50,0.00,,,0.00,109,WeatherCatV1.14B206,2013-02-12 22:31:00,
2013-02-12 14:36:00,57.2,39.2,30.30,ENE,77,0.0,0.0,51,0.00,,,0.00,69,WeatherCatV1.14B206,2013-02-12 22:36:00,
2013-02-12 14:41:00,57.2,38.7,30.30,ENE,77,0.0,1.0,50,0.00,,,0.00,139,WeatherCatV1.14B206,2013-02-12 22:41:00,
2013-02-12 14:46:00,57.2,38.7,30.30,East,92,0.0,0.0,50,0.00,,,0.00,329,WeatherCatV1.14B206,2013-02-12 22:46:00,
2013-02-12 14:51:00,57.2,39.2,30.30,East,82,0.0,1.0,51,0.00,,,0.00,51,WeatherCatV1.14B206,2013-02-12 22:51:00,
2013-02-12 14:56:00,57.2,39.7,30.30,NE,40,0.0,1.0,52,0.00,,,0.00,49,WeatherCatV1.14B206,2013-02-12 22:56:00,
2013-02-12 15:01:00,57.2,39.2,30.29,East,83,0.0,0.0,51,0.00,,,0.00,44,WeatherCatV1.14B206,2013-02-12 23:01:00,
2013-02-12 15:06:00,57.2,39.7,30.29,East,83,0.0,1.0,52,0.00,,,0.00,40,WeatherCatV1.14B206,2013-02-12 23:06:00,
2013-02-12 15:11:00,57.2,39.7,30.29,East,83,0.0,0.0,52,0.00,,,0.00,39,WeatherCatV1.14B206,2013-02-12 23:11:00,
2013-02-12 15:16:00,57.2,38.7,30.29,NNW,336,0.0,3.0,50,0.00,,,0.00,37,WeatherCatV1.14B206,2013-02-12 23:16:00,
2013-02-12 15:21:00,57.2,38.7,30.29,NNW,329,2.0,4.0,50,0.00,,,0.00,35,WeatherCatV1.14B206,2013-02-12 23:21:00,
2013-02-12 15:26:00,57.2,38.7,30.29,NNW,329,0.0,0.0,50,0.00,,,0.00,33,WeatherCatV1.14B206,2013-02-12 23:26:00,
2013-02-12 15:31:00,57.2,38.7,30.29,NNW,329,0.0,0.0,50,0.00,,,0.00,30,WeatherCatV1.14B206,2013-02-12 23:31:00,
2013-02-12 15:36:00,57.2,39.2,30.29,NNW,329,0.0,0.0,51,0.00,,,0.00,30,WeatherCatV1.14B206,2013-02-12 23:36:00,
2013-02-12 15:41:00,57.2,38.7,30.29,NNW,329,0.0,1.0,50,0.00,,,0.00,30,WeatherCatV1.14B206,2013-02-12 23:41:00,
2013-02-12 15:46:00,57.1,38.6,30.29,NNW,329,0.0,1.0,50,0.00,,,0.00,30,WeatherCatV1.14B206,2013-02-12 23:46:00,
2013-02-12 15:51:00,57.0,38.5,30.29,North,355,1.0,2.0,50,0.00,,,0.00,28,WeatherCatV1.14B206,2013-02-12 23:51:00,
2013-02-12 15:56:00,56.9,39.0,30.29,North,355,0.0,0.0,51,0.00,,,0.00,40,WeatherCatV1.14B206,2013-02-12 23:56:00,
2013-02-12 16:01:00,56.9,37.9,30.29,NW,326,1.0,4.0,49,0.00,,,0.00,42,WeatherCatV1.14B206,2013-02-13 00:01:00,
2013-02-12 16:06:00,56.8,38.4,30.29,NNW,327,0.0,0.0,50,0.00,,,0.00,44,WeatherCatV1.14B206,2013-02-13 00:06:00,
2013-02-12 16:11:00,56.7,39.3,30.29,NNW,327,0.0,1.0,52,0.00,,,0.00,30,WeatherCatV1.14B206,2013-02-13 00:11:00,
2013-02-12 16:16:00,56.6,39.2,30.28,NNW,327,0.0,0.0,52,0.00,,,0.00,25,WeatherCatV1.14B206,2013-02-13 00:16:00,
2013-02-12 16:21:00,56.5,38.6,30.28,NNW,327,0.0,0.0,51,0.00,,,0.00,23,WeatherCatV1.14B206,2013-02-13 00:21:00,
2013-02-12 16:26:00,56.3,39.4,30.28,NNW,330,2.0,3.0,53,0.00,,,0.00,21,WeatherCatV1.14B206,2013-02-13 00:26:00,
2013-02-12 16:31:00,56.2,38.8,30.28,NNW,337,0.0,1.0,52,0.00,,,0.00,21,WeatherCatV1.14B206,2013-02-13 00:31:00,
2013-02-12 16:36:00,56.0,38.1,30.28,NNW,337,0.0,0.0,51,0.00,,,0.00,21,WeatherCatV1.14B206,2013-02-13 00:36:00,
2013-02-12 16:41:00,55.9,38.5,30.28,NNW,337,0.0,0.0,52,0.00,,,0.00,19,WeatherCatV1.14B206,2013-02-13 00:41:00,
2013-02-12 16:46:00,55.7,38.3,30.28,NNW,337,1.0,1.0,52,0.00,,,0.00,19,WeatherCatV1.14B206,2013-02-13 00:46:00,
2013-02-12 16:51:00,55.5,37.7,30.28,NNW,337,0.0,0.0,51,0.00,,,0.00,18,WeatherCatV1.14B206,2013-02-13 00:51:00,
2013-02-12 16:56:00,55.3,37.5,30.28,NNW,337,0.0,0.0,51,0.00,,,0.00,16,WeatherCatV1.14B206,2013-02-13 00:56:00,
2013-02-12 17:01:00,55.1,37.3,30.28,NNW,337,0.0,0.0,51,0.00,,,0.00,16,WeatherCatV1.14B206,2013-02-13 01:01:00,
2013-02-12 17:06:00,55.0,37.7,30.28,NNW,337,0.0,0.0,52,0.00,,,0.00,14,WeatherCatV1.14B206,2013-02-13 01:06:00,
2013-02-12 17:11:00,54.7,37.9,30.28,NNW,337,0.0,0.0,53,0.00,,,0.00,12,WeatherCatV1.14B206,2013-02-13 01:11:00,
2013-02-12 17:16:00,54.6,37.8,30.28,NNW,337,0.0,0.0,53,0.00,,,0.00,11,WeatherCatV1.14B206,2013-02-13 01:16:00,
2013-02-12 17:21:00,54.4,38.1,30.28,NNW,337,0.0,0.0,54,0.00,,,0.00,9,WeatherCatV1.14B206,2013-02-13 01:21:00,
2013-02-12 17:26:00,54.2,37.9,30.29,NNW,337,0.0,0.0,54,0.00,,,0.00,9,WeatherCatV1.14B206,2013-02-13 01:26:00,
2013-02-12 17:31:00,54.1,37.8,30.29,NNW,337,0.0,0.0,54,0.00,,,0.00,7,WeatherCatV1.14B206,2013-02-13 01:31:00,
2013-02-12 17:36:00,53.9,38.1,30.29,NNW,337,0.0,0.0,55,0.00,,,0.00,5,WeatherCatV1.14B206,2013-02-13 01:36:00,
2013-02-12 17:41:00,53.7,37.9,30.29,NNW,337,0.0,0.0,55,0.00,,,0.00,0,WeatherCatV1.14B206,2013-02-13 01:41:00,
2013-02-12 17:46:00,53.5,37.7,30.29,NNW,337,0.0,0.0,55,0.00,,,0.00,0,WeatherCatV1.14B206,2013-02-13 01:46:00,
2013-02-12 17:51:00,53.3,37.5,30.28,NNW,337,0.0,0.0,55,0.00,,,0.00,0,WeatherCatV1.14B206,2013-02-13 01:51:00,
2013-02-12 17:56:00,53.1,37.4,30.28,NNW,337,0.0,0.0,55,0.00,,,0.00,0,WeatherCatV1.14B206,2013-02-13 01:56:00,
2013-02-12 18:01:00,52.9,37.2,30.28,NNW,337,0.0,0.0,55,0.00,,,0.00,0,WeatherCatV1.14B206,2013-02-13 02:01:00,
2013-02-12 18:06:00,52.7,37.0,30.29,NNW,337,0.0,0.0,55,0.00,,,0.00,0,WeatherCatV1.14B206,2013-02-13 02:06:00,
2013-02-12 18:11:00,52.5,37.7,30.29,NNW,337,0.0,0.0,57,0.00,,,0.00,0,WeatherCatV1.14B206,2013-02-13 02:11:00,
2013-02-12 18:16:00,52.4,38.5,30.28,NNW,337,0.0,0.0,59,0.00,,,0.00,0,WeatherCatV1.14B206,2013-02-13 02:16:00,
2013-02-12 18:21:00,52.3,38.0,30.28,NNW,337,0.0,0.0,58,0.00,,,0.00,0,WeatherCatV1.14B206,2013-02-13 02:21:00,
2013-02-12 18:26:00,52.1,38.2,30.28,NNW,337,0.0,0.0,59,0.00,,,0.00,0,WeatherCatV1.14B206,2013-02-13 02:26:00,
2013-02-12 18:31:00,52.0,38.1,30.28,NNW,337,0.0,0.0,59,0.00,,,0.00,0,WeatherCatV1.14B206,2013-02-13 02:31:00,
2013-02-12 18:36:00,51.9,38.5,30.28,NNW,337,0.0,0.0,60,0.00,,,0.00,0,WeatherCatV1.14B206,2013-02-13 02:36:00,
2013-02-12 18:41:00,51.7,37.8,30.28,NNW,337,0.0,0.0,59,0.00,,,0.00,0,WeatherCatV1.14B206,2013-02-13 02:41:00,
2013-02-12 18:46:00,51.6,37.7,30.29,NNW,337,0.0,0.0,59,0.00,,,0.00,0,WeatherCatV1.14B206,2013-02-13 02:46:00,
2013-02-12 18:51:00,51.4,38.0,30.29,NNW,337,0.0,0.0,60,0.00,,,0.00,0,WeatherCatV1.14B206,2013-02-13 02:51:00,
2013-02-12 18:56:00,51.2,37.4,30.29,NNW,337,0.0,0.0,59,0.00,,,0.00,0,WeatherCatV1.14B206,2013-02-13 02:56:00,
2013-02-12 19:01:00,51.0,37.6,30.29,NNW,337,0.0,0.0,60,0.00,,,0.00,0,WeatherCatV1.14B206,2013-02-13 03:01:00,
2013-02-12 19:06:00,50.8,37.4,30.29,NNW,337,0.0,0.0,60,0.00,,,0.00,0,WeatherCatV1.14B206,2013-02-13 03:06:00,
2013-02-12 19:11:00,50.6,37.7,30.29,NNW,337,0.0,0.0,61,0.00,,,0.00,0,WeatherCatV1.14B206,2013-02-13 03:11:00,
2013-02-12 19:16:00,50.4,37.9,30.29,NNW,337,0.0,0.0,62,0.00,,,0.00,0,WeatherCatV1.14B206,2013-02-13 03:16:00,
2013-02-12 19:21:00,50.3,37.8,30.29,NNW,337,0.0,0.0,62,0.00,,,0.00,0,WeatherCatV1.14B206,2013-02-13 03:21:00,
2013-02-12 19:26:00,50.1,38.0,30.30,NNW,337,0.0,0.0,63,0.00,,,0.00,0,WeatherCatV1.14B206,2013-02-13 03:26:00,
2013-02-12 19:31:00,50.1,38.0,30.30,NNW,337,0.0,0.0,63,0.00,,,0.00,0,WeatherCatV1.14B206,2013-02-13 03:31:00,
2013-02-12 19:36:00,50.0,38.3,30.30,NNW,337,0.0,0.0,64,0.00,,,0.00,0,WeatherCatV1.14B206,2013-02-13 03:36:00,
2013-02-12 19:41:00,50.0,38.3,30.30,NNW,337,0.0,0.0,64,0.00,,,0.00,0,WeatherCatV1.14B206,2013-02-13 03:41:00,
2013-02-12 19:46:00,49.9,38.2,30.30,NNW,337,0.0,0.0,64,0.00,,,0.00,0,WeatherCatV1.14B206,2013-02-13 03:46:00,
2013-02-12 19:51:00,49.8,38.1,30.30,NNW,337,0.0,0.0,64,0.00,,,0.00,0,WeatherCatV1.14B206,2013-02-13 03:51:00,
2013-02-12 19:56:00,49.8,38.5,30.30,NNW,337,0.0,0.0,65,0.00,,,0.00,0,WeatherCatV1.14B206,2013-02-13 03:56:00,
2013-02-12 20:01:00,49.7,38.0,30.30,NNW,337,0.0,0.0,64,0.00,,,0.00,0,WeatherCatV1.14B206,2013-02-13 04:01:00,
2013-02-12 20:06:00,49.5,38.2,30.30,NNW,337,0.0,0.0,65,0.00,,,0.00,0,WeatherCatV1.14B206,2013-02-13 04:06:00,
2013-02-12 20:11:00,49.4,38.1,30.30,NNW,337,0.0,0.0,65,0.00,,,0.00,0,WeatherCatV1.14B206,2013-02-13 04:11:00,
2013-02-12 20:16:00,49.3,38.0,30.30,NNW,337,0.0,0.0,65,0.00,,,0.00,0,WeatherCatV1.14B206,2013-02-13 04:16:00,
2013-02-12 20:21:00,49.1,37.8,30.30,NNW,337,0.0,0.0,65,0.00,,,0.00,0,WeatherCatV1.14B206,2013-02-13 04:21:00,
2013-02-12 20:26:00,49.0,38.1,30.30,NNW,337,0.0,0.0,66,0.00,,,0.00,0,WeatherCatV1.14B206,2013-02-13 04:26:00,
2013-02-12 20:31:00,48.8,38.0,30.30,NNW,337,0.0,0.0,66,0.00,,,0.00,0,WeatherCatV1.14B206,2013-02-13 04:31:00,
2013-02-12 20:36:00,48.6,38.1,30.31,NNW,337,0.0,0.0,67,0.00,,,0.00,0,WeatherCatV1.14B206,2013-02-13 04:36:00,
2013-02-12 20:41:00,48.5,38.4,30.31,NNW,337,0.0,0.0,68,0.00,,,0.00,0,WeatherCatV1.14B206,2013-02-13 04:41:00,
2013-02-12 20:46:00,48.4,38.3,30.31,NNW,337,0.0,0.0,68,0.00,,,0.00,0,WeatherCatV1.14B206,2013-02-13 04:46:00,
2013-02-12 20:51:00,48.3,37.9,30.31,NNW,337,0.0,0.0,67,0.00,,,0.00,0,WeatherCatV1.14B206,2013-02-13 04:51:00,
2013-02-12 20:56:00,48.3,37.9,30.31,NNW,337,0.0,0.0,67,0.00,,,0.00,0,WeatherCatV1.14B206,2013-02-13 04:56:00,
2013-02-12 21:00:00,48.2,37.8,30.31,NNW,337,0.0,0.0,67,0.00,,,0.00,0,WeatherCatV1.14B206,2013-02-13 05:00:00,
2013-02-12 21:05:00,48.2,38.1,30.31,NNW,337,0.0,0.0,68,0.00,,,0.00,0,WeatherCatV1.14B206,2013-02-13 05:05:00,
2013-02-12 21:10:00,48.1,38.0,30.31,NNW,337,0.0,0.0,68,0.00,,,0.00,0,WeatherCatV1.14B206,2013-02-13 05:10:00,
2013-02-12 21:15:00,48.1,38.0,30.31,NNW,337,0.0,0.0,68,0.00,,,0.00,0,WeatherCatV1.14B206,2013-02-13 05:15:00,
2013-02-12 21:20:00,48.1,38.0,30.31,NNW,337,0.0,0.0,68,0.00,,,0.00,0,WeatherCatV1.14B206,2013-02-13 05:20:00,
2013-02-12 21:25:00,48.0,38.3,30.31,NNW,337,0.0,0.0,69,0.00,,,0.00,0,WeatherCatV1.14B206,2013-02-13 05:25:00,
2013-02-12 21:30:00,47.9,39.0,30.31,NNW,337,0.0,0.0,71,0.00,,,0.00,0,WeatherCatV1.14B206,2013-02-13 05:30:00,
2013-02-12 21:35:00,47.8,38.1,30.32,NNW,337,0.0,0.0,69,0.00,,,0.00,0,WeatherCatV1.14B206,2013-02-13 05:35:00,
2013-02-12 21:40:00,47.6,38.3,30.32,NNW,337,0.0,0.0,70,0.00,,,0.00,0,WeatherCatV1.14B206,2013-02-13 05:40:00,
2013-02-12 21:45:00,47.5,38.2,30.32,NNW,337,0.0,0.0,70,0.00,,,0.00,0,WeatherCatV1.14B206,2013-02-13 05:45:00,
2013-02-12 21:50:00,47.1,37.8,30.32,NNW,337,0.0,0.0,70,0.00,,,0.00,0,WeatherCatV1.14B206,2013-02-13 05:50:00,
2013-02-12 21:55:00,46.8,37.9,30.32,NNW,337,0.0,0.0,71,0.00,,,0.00,0,WeatherCatV1.14B206,2013-02-13 05:55:00,
2013-02-12 22:00:00,46.6,38.1,30.31,NNW,337,0.0,0.0,72,0.00,,,0.00,0,WeatherCatV1.14B206,2013-02-13 06:00:00,
2013-02-12 22:05:00,46.4,38.2,30.31,NNW,337,0.0,0.0,73,0.00,,,0.00,0,WeatherCatV1.14B206,2013-02-13 06:05:00,
2013-02-12 22:10:00,46.2,38.0,30.31,NNW,337,0.0,0.0,73,0.00,,,0.00,0,WeatherCatV1.14B206,2013-02-13 06:10:00,
2013-02-12 22:15:00,46.1,37.6,30.31,NNW,337,0.0,0.0,72,0.00,,,0.00,0,WeatherCatV1.14B206,2013-02-13 06:15:00,
2013-02-12 22:20:00,46.0,37.5,30.31,NNW,337,0.0,0.0,72,0.00,,,0.00,0,WeatherCatV1.14B206,2013-02-13 06:20:00,
2013-02-12 22:25:00,45.9,37.7,30.32,NNW,337,0.0,0.0,73,0.00,,,0.00,0,WeatherCatV1.14B206,2013-02-13 06:25:00,
2013-02-12 22:30:00,45.9,37.7,30.32,NNW,337,0.0,0.0,73,0.00,,,0.00,0,WeatherCatV1.14B206,2013-02-13 06:30:00,
2013-02-12 22:35:00,45.8,37.6,30.31,NNW,337,0.0,0.0,73,0.00,,,0.00,0,WeatherCatV1.14B206,2013-02-13 06:35:00,
2013-02-12 22:40:00,45.6,37.8,30.32,NNW,337,0.0,0.0,74,0.00,,,0.00,0,WeatherCatV1.14B206,2013-02-13 06:40:00,
2013-02-12 22:45:00,45.5,37.7,30.31,NNW,337,0.0,0.0,74,0.00,,,0.00,0,WeatherCatV1.14B206,2013-02-13 06:45:00,
2013-02-12 22:50:00,45.4,37.9,30.32,NNW,337,0.0,0.0,75,0.00,,,0.00,0,WeatherCatV1.14B206,2013-02-13 06:50:00,
2013-02-12 22:55:00,45.3,37.8,30.32,NNW,337,0.0,0.0,75,0.00,,,0.00,0,WeatherCatV1.14B206,2013-02-13 06:55:00,
2013-02-12 23:00:00,45.2,37.8,30.32,NNW,337,0.0,0.0,75,0.00,,,0.00,0,WeatherCatV1.14B206,2013-02-13 07:00:00,
2013-02-12 23:05:00,45.1,37.7,30.32,NNW,337,0.0,0.0,75,0.00,,,0.00,0,WeatherCatV1.14B206,2013-02-13 07:05:00,
2013-02-12 23:10:00,45.1,37.7,30.32,NNW,337,0.0,0.0,75,0.00,,,0.00,0,WeatherCatV1.14B206,2013-02-13 07:10:00,
2013-02-12 23:15:00,45.0,37.9,30.32,NNW,337,0.0,0.0,76,0.00,,,0.00,0,WeatherCatV1.14B206,2013-02-13 07:15:00,
2013-02-12 23:20:00,44.9,37.8,30.32,NNW,337,0.0,0.0,76,0.00,,,0.00,0,WeatherCatV1.14B206,2013-02-13 07:20:00,
2013-02-12 23:25:00,44.7,37.6,30.32,NNW,337,0.0,0.0,76,0.00,,,0.00,0,WeatherCatV1.14B206,2013-02-13 07:25:00,
2013-02-12 23:30:00,44.6,37.5,30.32,NNW,337,0.0,0.0,76,0.00,,,0.00,0,WeatherCatV1.14B206,2013-02-13 07:30:00,
2013-02-12 23:35:00,44.5,37.7,30.32,NNW,337,0.0,0.0,77,0.00,,,0.00,0,WeatherCatV1.14B206,2013-02-13 07:35:00,
2013-02-12 23:40:00,44.4,37.6,30.32,NNW,337,0.0,0.0,77,0.00,,,0.00,0,WeatherCatV1.14B206,2013-02-13 07:40:00,
2013-02-12 23:45:00,44.3,37.6,30.32,NNW,337,0.0,0.0,77,0.00,,,0.00,0,WeatherCatV1.14B206,2013-02-13 07:45:00,
2013-02-12 23:50:00,44.3,37.6,30.32,NNW,337,0.0,0.0,77,0.00,,,0.00,0,WeatherCatV1.14B206,2013-02-13 07:50:00,
2013-02-12 23:55:00,44.2,37.5,30.32,NNW,337,0.0,0.0,77,0.00,,,0.00,0,WeatherCatV1.14B206,2013-02-13 07:55:00,